Back to Previous

Regional Weather Roundup

000
ASUS44 KLZK 050505
RWRLZK

WEATHER ROUNDUP FOR ARKANSAS
NATIONAL WEATHER SERVICE LITTLE ROCK AR
1200 AM CDT THU MAY 05 2016

NOTE: "FAIR" INDICATES FEW OR NO CLOUDS BELOW 12,000 FEET WITH NO
SIGNIFICANT WEATHER AND/OR OBSTRUCTIONS TO VISIBILITY.

ARZ001-003-010-029-050600-
NORTHWEST ARKANSAS
  
CITY           SKY/WX    TMP DP  RH WIND       PRES   REMARKS
FAYETTEVILLE   CLEAR     45  44  97 CALM      30.01R                  
FORT SMITH     CLEAR     58  38  47 CALM      29.99R                  
HARRISON       CLEAR     54  39  57 W3        29.99R                  
BENTONVILLE    CLEAR     54  37  54 N3        30.01S                  
ROGERS         CLEAR     53  40  61 CALM      30.02R                  
SILOAM SPGS    PTCLDY    52  36  54 CALM      30.02R                  
HIGHFILL       CLEAR     53  41  63 NW7       30.01R                  
$$

ARZ004-005-016-050600-
NORTH CENTRAL ARKANSAS
  
CITY           SKY/WX    TMP DP  RH WIND       PRES   REMARKS
BATESVILLE     CLEAR     61  36  39 CALM      29.95R                  
FLIPPIN        CLEAR    N/A N/A N/A NW3       29.94R                  
MTN HOME       CLEAR     51  41  68 CALM      29.96R                  
$$

ARZ040-041-050600-
WEST CENTRAL ARKANSAS
  
CITY           SKY/WX    TMP DP  RH WIND       PRES   REMARKS
MENA           CLEAR     63  39  42 W5        29.99R                  
MOUNT IDA      CLEAR     55  43  63 CALM      29.95R                  
$$

ARZ009-017-025-026-028-050600-
NORTHEAST ARKANSAS
  
CITY           SKY/WX    TMP DP  RH WIND       PRES   REMARKS
CORNING          N/A     55  41  58 N7        29.94R                  
JONESBORO      CLEAR     59  39  47 NW3       29.92R                  
NEWPORT        CLEAR     56  43  61 NW7       29.95R                  
WALNUT RIDGE   CLEAR     55  41  58 N8        29.92S                  
BLYTHEVILLE    CLEAR     54  46  74 N7        29.91R                  
$$

ARZ022-023-033-042-044-050600-
CENTRAL ARKANSAS
  
CITY           SKY/WX    TMP DP  RH WIND       PRES   REMARKS
LITTLE ROCK    CLEAR     64  39  39 N12       29.94R                  
JACKSONVILLE   CLEAR     61  41  47 NW6       29.93R                  
SEARCY         CLEAR     61  41  48 NW6       29.95R                  
HOT SPRINGS    CLEAR     60  41  49 NW5       29.96R                  
RUSSELLVILLE   CLEAR     53  45  74 CALM      29.96R                  
CLINTON        FAIR      48  46  93 CALM      29.97R                  
$$

ARZ036-050600-
EAST ARKANSAS
  
CITY           SKY/WX    TMP DP  RH WIND       PRES   REMARKS
WEST MEMPHIS   CLEAR     59  49  69 N5        29.89R                  
$$

ARZ050-053-066-070-073-050600-
SOUTHWEST ARKANSAS
  
CITY           SKY/WX    TMP DP  RH WIND       PRES   REMARKS
ARKADELPHIA    FAIR      62  53  72 N3        29.95R                  
CAMDEN         CLEAR     55  46  71 NW3       29.93R                  
TEXARKANA      CLEAR     64  42  44 N5        29.96R                  
EL DORADO      CLEAR     61  50  67 NW6       29.93R                  
DE QUEEN       CLEAR     53  50  89 E3        29.96R                  
$$

ARZ056-057-069-050600-
SOUTHEAST ARKANSAS
  
CITY           SKY/WX    TMP DP  RH WIND       PRES   REMARKS
PINE BLUFF     CLEAR     62  45  53 NW9       29.92R                  
STUTTGART      CLEAR     61  45  55 N9        29.93R                  
MONTICELLO     CLEAR     64  44  48 NW3       29.91R                  

$$


  

USA.gov is the U.S. government's official web portal to all federal, state and local government web resources and services.